"Pseudo-MPEC" for ZTF02rt

Created 2019 Feb 15 22:18:14 UT using Find_Orb

Click here for an explanation of pseudo-MPECs

 
 Astrometry: 
     ZTF02rt  C2019 02 09.35053109 49 15.50 +24 56 35.9    ~29LI 17.11RUNEOCPI41
     ZTF02rt  C2019 02 09.35087809 49 19.41 +24 55 52.6    ~29LI 17.11RUNEOCPI41
     ZTF02rt  C2019 02 09.35649009 50 24.81 +24 43 51.4    ~29LI 18.47RUNEOCPI41
     ZTF02rt  C2019 02 09.35683709 50 28.87 +24 43 05.9    ~29LI 18.47RUNEOCPI41

Station data:
(I41) Palomar Mountain--ZTF  (N33.357340 W116.859780)  US/California. 1.2-m
   f/2.44 Oschin Schmidt + CCD.

Orbital elements:  ZTF02rt
   Perigee 2019 Feb 8.701329 +/- 36.6 TT = 16:49:54 (JD 2458523.201329)
Epoch 2019 Feb  9.0 TT = JDT 2458523.5                        AutoNEOCP
M   2.70478029 +/- 27               (J2000 equator)
n   9.05605989 +/- 0.421            Peri.   51.80173 +/- 53
a492013.835 +/- 5.79e+7             Node     2.59914 +/- 70
e   0.8439679 +/- 0.242             Incl.   39.37461 +/- 2.6
P  39.75d                  H 33.0   G  0.15   U 12.2  SR
q 76769.9268 +/- 1.95e+7    Q 907257.744 +/- 6.48e+9
From 4 observations 2019 Feb. 9 (9.1 min); mean residual 0".70
Residuals in arcseconds: 
190209 I41  1.1+  .66-    190209 I41  .31-  .48+    
190209 I41  1.1-  .67+    190209 I41  .35+  .49-    

Ephemerides (geocentric):
Date (UTC) HH   RA              Dec         delta   r     elong  mag " sig PA
---- -- -- --  -------------   -----------  ------ ------ -----  --- ---- ---
2019 02 15 22  13 42 21.657   -17 46 03.85  642459 .98967 116.3 23.4  66d  16
2019 02 15 23  13 42 45.732   -17 50 09.83  644472 .98968 116.3 23.4  66d  16
2019 02 16 00  13 43 09.676   -17 54 14.07  646476 .98968 116.2 23.4  66d  16
2019 02 16 01  13 43 33.490   -17 58 16.61  648469 .98969 116.1 23.4  66d  16
2019 02 16 02  13 43 57.177   -18 02 17.47  650453 .98970 116.0 23.4  66d  16
2019 02 16 03  13 44 20.739   -18 06 16.67  652428 .98971 116.0 23.4  66d  16
2019 02 16 04  13 44 44.176   -18 10 14.24  654393 .98972 115.9 23.4  66d  16
2019 02 16 05  13 45 07.492   -18 14 10.19  656348 .98973 115.8 23.4  66d  16
2019 02 16 06  13 45 30.687   -18 18 04.56  658293 .98974 115.8 23.4  66d  16
2019 02 16 07  13 45 53.763   -18 21 57.35  660230 .98975 115.7 23.4  66d  16
2019 02 16 08  13 46 16.722   -18 25 48.60  662157 .98976 115.6 23.4  66d  16
2019 02 16 09  13 46 39.566   -18 29 38.32  664074 .98977 115.6 23.4  66d  16
2019 02 16 10  13 47 02.296   -18 33 26.54  665982 .98978 115.5 23.5  66d  16
2019 02 16 11  13 47 24.913   -18 37 13.27  667881 .98978 115.4 23.5  66d  16
2019 02 16 12  13 47 47.419   -18 40 58.54  669771 .98979 115.4 23.5  66d  16
2019 02 16 13  13 48 09.816   -18 44 42.37  671651 .98980 115.3 23.5  66d  16
2019 02 16 14  13 48 32.106   -18 48 24.76  673523 .98981 115.2 23.5  66d  16
2019 02 16 15  13 48 54.288   -18 52 05.75  675385 .98982 115.2 23.5  66d  16
2019 02 16 16  13 49 16.366   -18 55 45.36  677238 .98983 115.1 23.5  66d  16
2019 02 16 17  13 49 38.340   -18 59 23.59  679082 .98984 115.0 23.5  66d  16
2019 02 16 18  13 50 00.212   -19 03 00.47  680917 .98985 115.0 23.5  66d  16
2019 02 16 19  13 50 21.982   -19 06 36.01  682743 .98986 114.9 23.5  66d  16
2019 02 16 20  13 50 43.653   -19 10 10.24  684560 .98987 114.9 23.5  66d  16
2019 02 16 21  13 51 05.226   -19 13 43.16  686369 .98987 114.8 23.5  66d  16
2019 02 16 22  13 51 26.702   -19 17 14.81  688168 .98988 114.7 23.5  66d  16
2019 02 16 23  13 51 48.082   -19 20 45.18  689958 .98989 114.7 23.6  65d  16
2019 02 17 00  13 52 09.367   -19 24 14.30  691740 .98990 114.6 23.6  65d  16
2019 02 17 01  13 52 30.559   -19 27 42.19  693513 .98991 114.6 23.6  65d  16
2019 02 17 02  13 52 51.659   -19 31 08.86  695277 .98992 114.5 23.6  65d  16
2019 02 17 03  13 53 12.668   -19 34 34.32  697033 .98993 114.5 23.6  65d  16
2019 02 17 04  13 53 33.587   -19 37 58.60  698780 .98994 114.4 23.6  65d  16
2019 02 17 05  13 53 54.417   -19 41 21.70  700518 .98995 114.3 23.6  65d  16
2019 02 17 06  13 54 15.159   -19 44 43.64  702248 .98996 114.3 23.6  65d  16
2019 02 17 07  13 54 35.815   -19 48 04.43  703969 .98996 114.2 23.6  65d  16
2019 02 17 08  13 54 56.386   -19 51 24.09  705681 .98997 114.2 23.6  65d  16
2019 02 17 09  13 55 16.872   -19 54 42.63  707385 .98998 114.1 23.6  65d  16
2019 02 17 10  13 55 37.275   -19 58 00.07  709080 .98999 114.1 23.6  65d  16
2019 02 17 11  13 55 57.596   -20 01 16.42  710768 0.9900 114.0 23.6  65d  16
2019 02 17 12  13 56 17.835   -20 04 31.69  712446 0.9900 114.0 23.6  65d  16
2019 02 17 13  13 56 37.994   -20 07 45.90  714116 0.9900 113.9 23.7  65d  16
2019 02 17 14  13 56 58.074   -20 10 59.05  715778 0.9900 113.9 23.7  65d  16
2019 02 17 15  13 57 18.075   -20 14 11.17  717432 0.9900 113.8 23.7  65d  16
2019 02 17 16  13 57 37.999   -20 17 22.25  719077 0.9900 113.8 23.7  65d  16
2019 02 17 17  13 57 57.847   -20 20 32.33  720714 0.9901 113.7 23.7  65d  16
2019 02 17 18  13 58 17.619   -20 23 41.40  722342 0.9901 113.7 23.7  65d  16
2019 02 17 19  13 58 37.316   -20 26 49.47  723963 0.9901 113.6 23.7  65d  16
2019 02 17 20  13 58 56.939   -20 29 56.57  725575 0.9901 113.6 23.7  65d  16
2019 02 17 21  13 59 16.490   -20 33 02.70  727179 0.9901 113.5 23.7  65d  16